Location: Bill Sadowski Park
(25.6087°N, 80.3181°W)
Time: 19:06:54
(UTC-04:00)

Hubble Space Telescope - Visible Passes

Search period start: 21 May 2019 00:00
Search period end: 31 May 2019 00:00
Orbit: 536 x 540 km, 28.5° (Epoch: 21 May)

Date Brightness Start Highest point End Pass type
(mag) Time Alt. Az. Time Alt. Az. Time Alt. Az.
21 May 2.0 21:11:33 10° W 21:15:11 30° SSW 21:16:54 22° SSE visible
22 May 2.4 21:01:17 10° W 21:04:37 24° SSW 21:06:58 15° SSE visible
23 May 2.8 20:51:09 10° WSW 20:54:02 18° SSW 20:56:55 10° SSE visible
24 May 3.1 20:41:16 10° WSW 20:43:27 14° SSW 20:45:38 10° S visible
25 May 3.4 20:32:14 10° SW 20:32:52 10° SSW 20:33:30 10° SSW visible
